Location: Andershausen
(51.8462°N, 9.8595°E)
Time: 02:54:32
(UTC+00:00)

SJ 16-02 - Pass Details

Date: 18 November 2025
Orbit: 585 x 594 km, 75.0° (Epoch: 15 December)

Event Time Altitude Azimuth Distance (km) Brightness Sun altitude
Rises 16:41:37 0° 164° (SSE) 2,823 4.8 -11.5°
Reaches altitude 10° 16:44:13 10° 149° (SSE) 1,927 3.7 -11.9°
Maximum altitude 16:47:30 22° 99° (E) 1,325 2.5 -12.4°
Enters shadow 16:48:45 19° 74° (ENE) 1,431 2.6 -12.6°
